Location: Turicum
(47.3667°N, 8.5500°E)
Time: 15:47:17
(UTC+00:00)

Daily predictions for brighter satellites

Satellite Brightness Start Highest point End
(mag) Time Altitude Azimuth Time Altitude Azimuth Time Altitude Azimuth
Cosmos 1515 3.9 19:40:54 10° S 19:44:33 50° E 19:48:13 10° NNE
CZ-4B R/B 1.4 19:41:57 10° NNE 19:45:06 52° E 19:48:10 10° S
SPOT 1/Viking Rocket 3.7 19:41:12 10° SSE 19:46:19 65° ENE 19:51:26 10° N
Helios 1A Rocket 4.3 19:43:38 10° ESE 19:46:51 24° ENE 19:50:05 10° N
Resurs 1-3 4.3 19:42:49 10° S 19:47:07 55° W 19:51:27 10° NNW
Meteor 1-27 Rocket 3.9 19:41:37 10° S 19:47:16 61° E 19:53:05 10° NNE
Cosmos 1633 Rocket 3.8 19:46:48 10° NNW 19:51:06 55° W 19:55:21 10° S
Cosmos 2219 3.6 19:46:43 10° NNW 19:52:18 66° WSW 19:57:51 10° SSE
SJ 16-02 2.3 19:50:23 10° SSE 19:54:03 27° E 19:57:45 10° NE
Cosmos 1315 Rocket 4.2 19:50:30 10° NNW 19:54:19 39° W 19:58:03 10° SSW
H-2A R/B 4.5 19:50:32 10° SSW 19:54:19 28° W 19:58:00 10° NW
Cosmos 1340 2.7 19:51:13 10° S 19:54:53 57° E 19:58:34 10° NNE
Cosmos 2082 3.7 19:53:30 10° NNW 19:59:11 78° ENE 20:04:47 10° SSE
Meteor 1-11 Rocket 4.1 19:54:14 10° NNW 20:00:13 77° W 20:06:08 10° S
Cosmos 482 Debris 4.0 19:58:49 10° WNW 20:01:24 60° NNE 20:05:17 10° ESE
Cosmos 2263 Rocket 2.8 19:56:52 10° NNW 20:02:15 45° NE 20:07:29 10° SE
Cosmos 1470 Rocket 3.8 19:58:11 10° NNW 20:02:31 71° W 20:06:48 10° S
Cosmos 1743 2.7 20:01:57 10° N 20:05:45 89° W 20:09:32 10° S
Ariane Rocket 3.0 20:01:06 10° SSE 20:06:10 89° ENE 20:11:18 10° NNW
SPOT 5 3.7 20:06:30 10° SE 20:11:20 41° ENE 20:16:07 10° N
BREEZE-M DEB (TANK) 2.3 20:08:45 10° W 20:11:31 59° NNW 20:13:41 10° ENE
IRAS Rocket 4.3 20:06:09 10° NNE 20:11:49 84° ESE 20:17:27 10° SSW
Terra 3.0 20:09:04 11° ESE 20:13:01 29° ENE 20:17:05 10° N
Resurs 01 Rocket 2.2 20:10:38 10° S 20:14:57 57° W 20:19:19 10° NNW
Aureole 1 Rocket 2.5 20:13:47 10° SSW 20:16:57 67° WNW 20:19:55 10° NNE
Cosmos 1515 Rocket 3.8 20:13:17 10° SSW 20:17:39 73° W 20:22:04 10° N
Cosmos 1809 Rocket 4.5 20:12:18 10° N 20:18:28 76° E 20:24:37 10° SSE
Cosmos 2227 Rocket 3.5 20:14:58 10° NW 20:20:08 36° WSW 20:25:15 10° S
Cosmos 921 Rocket 3.1 20:16:56 10° NNW 20:21:29 86° WSW 20:25:38 12° SSE
Cosmos 783 Rocket 4.5 20:21:56 10° NNW 20:27:10 78° ENE 20:31:34 15° SSE
Cosmos 1980 Rocket 2.2 20:24:10 10° SSW 20:29:47 81° ESE 20:35:30 10° NNE
CARTOSAT-1 3.6 20:26:14 11° SSE 20:30:22 82° WSW 20:34:44 10° NNW
Cosmos 1869 Rocket 3.6 20:26:23 10° N 20:30:52 68° ENE 20:34:33 15° SSE
SL-24 R/B - RUBIN 2 4.2 20:26:49 10° NNW 20:31:04 47° NE 20:34:41 14° ESE
Cosmos 2228 Rocket 3.3 20:29:01 11° S 20:33:18 54° E 20:37:45 10° NNE
Cosmos 1464 Rocket 4.3 20:28:15 10° SSW 20:34:26 72° W 20:40:36 10° N
Cosmos 1378 3.7 20:34:31 17° SSE 20:36:53 39° E 20:40:19 10° NNE
Cosmos 2344 3.5 20:30:35 10° SW 20:38:05 86° SE 20:45:51 10° NE
Cosmos 2322 Rocket 3.5 20:36:17 16° SE 20:38:39 20° E 20:42:38 10° NE
Cosmos 1777 Rocket 4.1 20:33:58 10° S 20:39:03 57° ESE 20:44:12 10° NNE
ISS -3.8 20:35:48 10° WNW 20:39:10 87° NNE 20:41:27 19° ESE
Cosmos 2369 3.9 20:33:52 10° SSW 20:39:30 77° WNW 20:45:12 10° NNE
Spot 2 Rocket 3.5 20:35:42 15° SSE 20:39:51 74° ENE 20:44:54 10° N
Cosmos 1354 Rocket 4.0 20:35:00 10° SSW 20:40:16 89° E 20:45:37 10° NNE
SPOT 3 Rocket 3.7 20:36:10 11° S 20:41:04 72° WSW 20:46:14 10° NNW
Cosmos 773 Rocket 4.0 20:35:56 10° NNW 20:41:11 82° WSW 20:45:19 16° SSE
Cosmos 1536 4.5 20:37:39 10° NNW 20:41:13 31° W 20:44:47 10° SSW
Cosmos 1844 Rocket 4.3 20:37:00 10° N 20:41:32 24° NE 20:46:01 10° E
ATLAS 2AS CENTAUR R/B 2.9 20:35:02 10° SSW 20:42:46 70° ESE 20:50:18 10° NE
Okean 1 3.4 20:40:37 10° S 20:44:37 82° WNW 20:48:40 10° N
Meteor 2-4 Rocket 4.1 20:40:22 14° SSE 20:45:06 49° E 20:50:31 10° NNE
H-2A R/B 4.4 20:42:24 10° N 20:45:42 24° WNW 20:48:59 10° WSW
Meteor 1-19 Rocket 4.1 20:41:18 10° S 20:46:44 89° E 20:52:11 10° NNE
Cosmos 1092 Rocket 4.0 20:40:59 10° N 20:47:11 73° E 20:52:05 17° SSE
Nadezhda 4 Rocket 4.3 20:41:47 10° NNW 20:47:58 68° W 20:54:03 10° S
RESURS DK-1 2.2 20:44:32 10° SSW 20:48:38 75° ESE 20:52:45 10° NNE
Cosmos 1697 Rocket 4.1 20:43:31 10° SW 20:48:53 42° NW 20:54:16 10° NNE
SL-4 R/B 3.9 20:46:21 10° W 20:49:44 21° SW 20:52:09 14° S
USA 267 4.5 20:47:59 10° ENE 20:54:00 40° N 21:00:00 10° WNW
Cosmos 1634 Rocket 4.1 20:49:58 15° SSE 20:55:07 59° E 21:01:11 10° NNE
ARIANE 5 R/B 2.9 20:53:39 21° SE 20:56:25 56° ENE 21:00:50 10° N
Cosmos 1707 Rocket 3.8 20:54:13 20° SSE 20:57:00 51° E 21:01:18 10° NNE
ATLAS CENTAUR R/B 3.8 20:53:14 10° NNW 20:57:02 22° NNE 21:00:44 10° E
Cosmos 44 Rocket 3.2 20:53:49 10° NW 20:58:33 85° NE 21:01:28 23° SE
Cosmos 2227 4.2 20:58:23 10° NNW 21:04:11 84° ENE 21:07:59 22° SSE
Cosmos 158 Rocket 4.0 21:00:53 10° NNW 21:06:02 85° WSW 21:09:24 23° SSE
ATLAS 3B R/B 3.0 21:00:22 10° NW 21:07:43 73° NE 21:13:24 19° SE
NOSS 2-1 (E) 3.2 21:08:10 34° SSE 21:08:54 40° SE 21:11:57 10° NE
Cosmos 1975 2.9 21:07:11 10° NNW 21:11:16 79° W 21:13:33 25° S
Cosmos 2026 Rocket 4.0 21:06:15 10° N 21:12:26 86° W 21:17:00 20° S
USA 81 4.0 21:09:01 20° S 21:12:40 72° E 21:17:56 10° N
ERS-1 Rocket 3.2 21:12:32 20° S 21:16:03 64° WSW 21:21:05 10° NNW
SL-16 R/B 2.3 21:13:28 18° S 21:17:35 54° ESE 21:23:07 10° NE
Meteor 1-4 Rocket 3.4 21:15:22 10° N 21:18:37 35° ENE 21:19:36 29° ESE
CZ-4C R/B 4.2 21:13:14 10° NNW 21:19:13 32° NNE 21:26:13 10° E
Cosmos 1538 Rocket 4.0 21:16:08 10° NNW 21:21:25 88° WSW 21:24:18 27° SSE
Helios 1A Rocket 4.2 21:19:01 15° SSW 21:21:47 33° W 21:25:27 10° NNW
CZ-2C R/B 4.0 21:18:55 10° N 21:23:41 73° WNW 21:27:46 14° SSW
GENESIS II 4.0 21:20:47 14° SSW 21:23:59 76° SE 21:27:55 10° NE
Cosmos 1733 Rocket 3.0 21:21:05 10° N 21:25:35 86° E 21:27:44 30° S
Meteor 2-8 Rocket 4.4 21:25:01 17° S 21:29:53 87° W 21:36:01 10° N
OE (NEXTSAT) 4.0 21:27:52 10° W 21:31:10 70° S 21:32:08 41° ESE
Geosat 4.0 21:28:35 28° SE 21:31:18 74° ENE 21:36:20 10° NNW
EP 1 4.4 21:29:19 19° SW 21:31:32 86° SE 21:34:19 10° NE
SAR-Lupe-4 3.5 21:28:42 10° NNE 21:32:18 66° ESE 21:33:21 41° SSE
SJ 16-02 3.0 21:28:30 10° SW 21:32:29 34° WNW 21:36:30 10° N
Cosmos 1356 3.7 21:35:10 41° ESE 21:35:24 42° E 21:38:33 10° NNE
Cosmos 2292 Rocket 4.4 21:34:31 10° NNW 21:37:04 26° W 21:38:16 19° SW
Cosmos 1908 Rocket 4.2 21:33:00 10° N 21:37:08 41° ENE 21:38:37 30° ESE
Cosmos 923 Rocket 4.3 21:34:14 10° NNW 21:39:33 62° ENE 21:42:10 30° SE
Cosmos 1862 Rocket 3.5 21:37:31 29° S 21:39:46 89° E 21:44:17 10° N
Cosmos 2360 Rocket 2.7 21:40:43 30° SSE 21:42:43 41° ESE 21:47:58 10° NE
Cosmos 1937 Rocket 4.4 21:42:39 27° SE 21:43:52 30° E 21:48:26 10° NE
Cosmos 1726 3.2 21:41:07 10° N 21:44:26 31° ENE 21:45:09 28° E
Cosmos 2263 Rocket 3.4 21:41:07 10° NW 21:46:00 32° WSW 21:49:11 18° SSW
ALOS 2 4.3 21:44:37 17° E 21:46:31 23° ENE 21:49:56 10° NNE
Meteor 1-13 Rocket 4.3 21:44:30 31° SSE 21:47:07 60° E 21:52:34 10° NNE
Cosmos 2266 Rocket 4.2 21:42:06 10° N 21:48:17 57° ENE 21:51:20 29° SE
NOSS 2-1 (C) 3.2 21:46:44 15° SW 21:49:18 61° NW 21:52:31 10° NE
SPOT 5 4.5 21:45:43 14° SSW 21:49:28 30° W 21:54:00 10° NNW
Terra 2.9 21:47:57 21° SSW 21:50:38 38° W 21:55:05 10° NNW
Cosmos 1441 Rocket 3.1 21:51:03 42° SSW 21:52:13 82° W 21:55:57 10° N
Cosmos 1346 Rocket 3.8 21:50:23 19° SW 21:52:57 43° WNW 21:56:49 10° N
SAR-Lupe-1 4.5 21:49:46 10° N 21:53:19 59° WNW 21:54:46 32° SW
Cosmos 2279 Rocket 4.1 21:53:30 22° SSW 21:57:40 76° W 22:03:56 10° N
NOSS 2-1 (D) 3.7 21:56:58 12° WSW 21:59:47 47° NW 22:02:57 10° NNE
Cosmos 2112 Rocket 4.3 21:54:50 10° NNW 22:00:08 60° ENE 22:02:27 32° SE
USA 215 3.5 21:54:08 10° ENE 22:00:22 44° SE 22:03:42 26° S
Cosmos 990 Rocket 3.9 21:57:54 29° SSW 22:00:40 82° ESE 22:05:57 10° NNE
Cosmos 2278 Rocket 4.4 21:57:17 10° N 22:01:08 18° NE 22:04:57 10° E
Cosmos 1680 Rocket 3.6 21:55:54 10° NNW 22:01:13 71° ENE 22:03:26 35° SE
MINOTAUR IV R/B 4.5 22:00:16 32° SSW 22:02:20 90° SSW 22:06:52 10° NNE
Iridium 2 4.2 21:59:39 10° NNW 22:03:19 51° W 22:04:23 37° SW
Cosmos 1842 4.3 22:03:47 29° E 22:04:01 30° E 22:07:26 10° NNE
Meteor 1-12 Rocket 4.3 22:00:17 10° N 22:06:16 84° E 22:08:53 35° SSE
Cosmos 1066 Rocket 4.3 22:05:06 28° SSW 22:08:20 82° WNW 22:14:01 10° N
ADEOS Rocket 4.1 22:05:31 19° ESE 22:08:45 33° ENE 22:14:04 10° N
Spot 4 4.1 22:07:13 36° SE 22:08:57 58° ENE 22:13:40 10° N
Cosmos 1818 3.7 22:04:06 10° NW 22:09:35 72° NE 22:12:08 32° SE
Iridium 4 Rocket 3.3 22:07:34 10° N 22:12:09 71° E 22:13:44 42° SSE
Cosmos 1898 Rocket 3.5 22:11:50 36° S 22:14:01 73° ESE 22:19:20 10° NNE
ISS -1.5 22:13:10 10° W 22:14:21 16° WSW 22:14:21 16° WSW
Cosmos 1900 4.4 22:15:19 41° S 22:16:51 60° ESE 22:21:54 10° NE
Okean 1-7 2.9 22:17:25 49° S 22:18:36 85° E 22:22:59 10° N
Iridium 51 4.2 22:21:01 54° SW 22:21:28 61° W 22:25:00 10° N
Cosmos 2322 Rocket 2.4 22:18:02 19° SW 22:22:06 69° WNW 22:27:44 10° NNE
Okean 3 3.4 22:25:02 56° SSE 22:25:52 77° E 22:30:07 10° NNE
Cosmos 1844 Rocket 2.7 22:20:23 10° NNW 22:25:57 69° WSW 22:27:57 40° S
Cosmos 2322 4.4 22:25:29 34° SE 22:26:44 38° ESE 22:31:58 10° NE
Cosmos 2333 Rocket 2.4 22:25:18 39° SSE 22:26:55 51° ESE 22:32:24 10° NE
Cosmos 1805 4.3 22:24:00 10° NNW 22:27:36 36° W 22:28:28 32° WSW
H-2A R/B 3.5 22:27:49 10° NNE 22:31:53 57° ESE 22:32:20 53° SE
Cosmos 1461 4.0 22:28:07 10° NNW 22:32:03 40° NE 22:33:55 26° E
BREEZE-M DEB (TANK) 3.5 22:30:01 10° W 22:31:52 29° SW 22:31:52 29° SW
ATLAS 2AS CENTAUR R/B 4.2 22:27:01 10° WSW 22:34:16 41° NW 22:41:15 10° NE
Meteor 1-23 Rocket 4.2 22:34:01 38° S 22:36:26 87° E 22:42:19 10° NNE
USA 267 3.5 22:29:57 10° ESE 22:36:27 67° NNE 22:42:57 10° NW
ATLAS CENTAUR R/B 1.6 22:31:37 10° NW 22:36:31 88° NE 22:37:50 48° SE
Cosmos 1766 3.8 22:39:02 10° NNW 22:42:49 47° W 22:43:23 43° WSW
Cosmos 2219 Rocket 2.3 22:44:48 43° SSE 22:46:15 55° ESE 22:51:43 10° NE
Cosmos 1844 4.0 22:43:58 10° NW 22:49:38 55° WSW 22:51:27 39° SSW
Cosmos 1703 Rocket 4.2 22:48:16 36° SW 22:49:41 50° WNW 22:54:01 10° N
Cosmos 372 Rocket 3.8 22:51:17 46° S 22:52:49 82° ESE 22:58:01 10° NNE
ATLAS 3B R/B 3.9 22:51:41 10° NW 22:58:00 31° WSW 23:00:38 25° SW
Cosmos 1707 2.7 23:00:36 66° ESE 23:00:46 67° E 23:04:38 10° NNE
SL-16 R/B 3.9 22:57:03 10° WSW 23:02:00 30° NW 23:06:58 10° NNE
NOSS 3-1 (A) 4.2 22:54:44 10° NW 23:02:04 73° NE 23:08:57 17° SE
Cosmos 1782 Rocket 4.1 22:59:53 10° NNW 23:04:03 45° W 23:04:50 40° WSW
ERS-2 2.0 23:03:08 10° NNE 23:06:46 80° WNW 23:06:52 79° WSW
Okean 2 3.6 23:06:39 50° ESE 23:06:58 51° E 23:10:57 10° NNE
CZ-4C R/B 3.0 23:01:30 10° NW 23:08:42 85° NE 23:14:17 24° SE
NOSS 3-1 (C) 4.0 23:01:57 10° NW 23:09:24 75° SW 23:14:03 31° SSE
USA 290 3.5 23:10:46 33° ENE 23:10:46 33° ENE 23:12:59 10° NE
Cosmos 1238 Rocket 3.4 23:09:31 10° N 23:11:57 35° ENE 23:11:57 35° ENE
Gblst 52 Del rocket 4.4 23:08:53 10° WSW 23:15:16 77° NNW 23:20:59 10° ENE
Cosmos 2237 Rocket 3.4 23:14:56 24° ESE 23:16:07 26° ESE 23:20:45 10° NE
KORONAS-FOTON 3.8 23:16:49 62° ESE 23:16:53 63° E 23:20:39 10° NNE
Cosmos 1470 3.2 23:15:09 10° NNW 23:18:52 45° W 23:19:01 45° WSW
Cosmos 1726 4.0 23:16:32 10° NW 23:19:13 19° W 23:19:26 19° W
COSMOS 2428 2.7 23:17:53 45° S 23:19:38 71° ESE 23:25:19 10° NNE
Cosmos 1300 Rocket 3.7 23:15:58 10° NNW 23:20:14 57° W 23:20:51 51° SW
Cosmos 1745 Rocket 4.4 23:16:02 10° N 23:22:10 55° ENE 23:25:01 31° SE
ALOS 2 3.2 23:22:00 40° WSW 23:22:36 43° W 23:26:48 10° NNW
PSLV R/B 3.9 23:18:39 10° NNE 23:22:59 55° E 23:23:40 49° SE
Cosmos 2151 Rocket 3.6 23:18:43 10° N 23:23:08 71° E 23:23:57 55° SE
USA 305 4.1 23:26:44 28° ESE 23:26:44 28° ESE 23:29:22 10° ENE
Cosmos 1937 Rocket 4.5 23:22:46 22° WSW 23:25:40 41° WNW 23:30:41 10° N
Cosmos 1242 Rocket 2.5 23:22:37 10° NNW 23:26:07 77° WNW 23:26:07 77° WNW
Cosmos 2360 Rocket 3.4 23:22:25 14° WSW 23:26:45 37° NW 23:32:00 10° NNE
Okean 2 Rocket 3.0 23:22:40 10° N 23:27:13 89° E 23:28:05 59° S
Cosmos 405 Rocket 3.2 23:28:20 44° E 23:28:21 44° E 23:31:59 10° NNE
Cosmos 1943 Rocket 4.3 23:25:32 10° N 23:29:58 23° NE 23:34:24 10° E
In-Cosmos 22 4.1 23:29:31 44° SSW 23:31:23 83° WNW 23:36:53 10° N
Cosmos 1437 Rocket 3.3 23:29:28 10° N 23:33:06 46° ENE 23:33:33 43° E
Nimbus 7 Rocket 4.3 23:28:12 10° NNE 23:34:07 76° ESE 23:36:12 42° S
Cosmos 1908 3.0 23:30:49 10° N 23:34:37 81° E 23:34:48 78° SE
Cosmos 1867 3.5 23:33:44 43° SSW 23:35:36 85° SE 23:41:08 10° NE
Cosmos 2298 Rocket 4.4 23:34:33 40° SE 23:35:49 49° ESE 23:40:55 10° NNE
Meteor 1-21 4.4 23:34:35 39° SSW 23:36:46 72° WNW 23:42:36 10° N
Cosmos 1626 1.9 23:37:36 87° SE 23:37:37 87° E 23:41:19 10° N
SL-08 R/B 4.5 23:32:41 10° N 23:38:59 80° W 23:41:27 40° S
USA 215 3.5 23:37:06 10° NE 23:43:37 70° NNW 23:50:08 10° WSW
Cosmos 1953 2.6 23:40:09 10° N 23:44:07 57° ENE 23:44:46 49° ESE
Cosmos 2278 Rocket 2.2 23:40:29 10° NNW 23:46:12 78° ENE 23:48:51 33° SE
Cosmos 468 4.4 23:42:12 10° NNW 23:47:27 83° WSW 23:49:03 46° SSE
Cosmos 1674 3.0 23:50:45 51° W 23:51:00 53° WNW 23:54:42 10° N
Sich 1 Rocket 4.3 23:49:18 10° NNW 23:53:24 39° W 23:54:00 37° WSW
ADEOS Rocket 3.4 23:52:27 35° SW 23:54:08 43° W 23:59:50 10° NNW
